Location: Noordwijk
(52.2400°N, 4.4500°E)
Time: 11:38:55
(UTC+00:00)

AO-85 - Pass Details

Date: 01 December 2022
Orbit: 516 x 753 km, 64.8° (Epoch: 04 January)

Event Time Altitude Azimuth Distance (km) Brightness Sun altitude
Rises 18:02:13 0° 266° (W) 2,943 ? -21.8°
Reaches altitude 10° 18:04:58 10° 280° (W) 1,989 ? -22.2°
Maximum altitude 18:08:35 24° 334° (NNW) 1,262 ? -22.7°
Enters shadow 18:09:45 21° 359° (N) 1,338 ? -22.9°
